Volver al catálogo

STARLINK-30877

ActivoComunicacionesVLEO
NORAD 58242·PAYLOAD·🇺🇸 United States

Lanzado Nov 8, 2023 desde Cape Canaveral Space Force Station

Loading…

Próximos Pases (próximas 24 horas)

TLE

ActualizadoSource: CelesTrak SupGP

Época: Sep 15, 2026, 02:39 UTC

1 58242C 23171N   26258.11090278  .00021748  00000+0  78787-3 0  2585
2 58242  43.0032 295.3472 0002007 265.7944 162.4171 15.27560312    18

Sigue STARLINK-30877 en tiempo real con AllMySat

Download on the App Store